RH
97 100 100 100 99 99 93 86 75 72 72 77 83 93 99 100 100 99 100 100 100 100 100 99 100 100 100 100 99 99 98 99 98 99 98 98 98 98 98 98 98 98 98
93 100 100 98 94 92 87 84 80 79 80 85 97 100 100 100 99 99 100 99 100 98 99 100 100 100 99 99 98 98 100 100 100 100 100 99 99 99 99 99 99 99 99
87 93 97 97 94 90 88 85 86 92 93 99 100 100 100 100 100 98 97 97 98 98 98 98 98 98 97 95 94 96 98 100 100 100 100 100 99 99 100 100 100 100 100
85 89 96 97 93 93 92 95 98 98 100 100 100 100 99 99 99 97 95 93 96 95 98 99 95 90 87 86 85 84 85 90 91 93 92 94 94 95 96 97 98 99 100
78 81 84 85 87 92 100 99 100 100 100 99 99 99 97 94 94 95 96 92 93 92 92 94 90 85 83 80 80 81 81 82 82 82 82 82 82 83 85 87 88 90 91
78 80 81 86 91 99 100 99 99 100 97 90 83 72 60 52 45 42 54 63 72 73 74 80 88 89 84 81 82 79 80 81 81 81 81 80 80 80 80 81 81 82 82
76 76 82 95 99 99 99 99 97 91 78 75 61 59 46 34 34 33 31 33 32 35 51 68 74 83 86 86 84 81 79 79 81 80 80 80 79 79 79 79 80 80 80
63 63 80 96 96 93 99 97 91 88 84 72 62 46 36 31 32 30 31 31 32 31 30 32 44 56 65 80 88 87 82 80 80 80 81 80 80 78 78 77 78 78 78
48 48 61 83 88 85 83 70 70 58 54 56 46 36 39 38 35 33 29 30 33 34 34 34 35 45 59 66 81 91 92 87 85 83 83 80 80 79 79 81 76 78 76
61 53 56 70 69 67 57 52 48 44 39 41 38 35 35 28 38 38 34 31 29 33 34 32 38 45 60 69 78 83 84 82 81 81 80 79 79 80 81 81 82 79 78
67 69 65 61 58 52 52 48 45 40 40 42 39 43 31 25 24 31 39 34 31 32 32 34 43 50 62 66 62 66 68 72 73 78 81 82 84 86 86 85 82 80 78
84 78 70 65 57 55 50 44 43 39 38 39 39 37 38 36 35 27 35 36 33 33 33 35 41 50 54 56 53 26 17 14 44 70 77 82 84 84 82 80 82 80 79
68 55 64 66 74 62 52 48 44 40 38 38 38 38 36 31 32 31 33 34 33 34 34 34 36 41 48 48 30 18 11 10 11 43 72 76 77 76 78 78 79 81 80
50 47 44 51 67 58 53 50 48 47 43 43 39 34 34 29 30 33 36 34 40 35 35 36 39 40 40 40 34 15 22 12 10 16 51 68 70 72 73 75 76 77 78
46 38 44 46 50 52 52 54 53 48 50 47 45 41 35 32 33 32 36 34 35 40 37 39 43 41 44 39 31 24 26 20 12 11 14 39 65 69 72 74 75 79 81
45 46 44 44 47 48 49 50 47 46 45 44 43 41 40 40 38 36 35 33 29 27 41 36 39 44 43 41 36 21 21 14 12 12 12 18 52 69 72 74 75 77 78
73 49 45 47 47 46 45 45 44 44 44 42 44 44 43 42 40 38 36 32 27 29 40 36 40 47 49 46 34 29 27 22 21 33 16 16 44 67 71 72 75 79 80
58 70 49 42 44 45 44 42 42 44 45 45 44 44 43 42 39 38 36 35 29 30 33 42 43 45 42 38 35 35 34 31 28 32 44 54 58 68 71 72 74 75 76
96 74 46 44 41 42 43 44 44 43 44 43 44 43 40 40 40 38 35 34 33 29 29 31 35 36 36 37 38 37 35 33 36 39 47 60 67 71 70 70 72 73 78
96 96 94 74 52 45 43 42 41 40 38 36 36 36 33 34 33 31 29 33 31 31 32 34 35 34 34 34 36 36 35 36 37 39 42 47 54 62 69 74 76 78 81
95 96 96 96 96 96 95 92 90 89 87 78 47 34 31 29 33 30 27 29 27 32 36 38 39 36 35 35 36 37 40 40 43 45 47 48 51 52 52 58 66 71 73
97 96 95 95 96 96 97 96 96 96 96 96 94 86 73 57 50 52 51 48 42 40 42 40 41 42 39 36 38 42 47 49 51 47 49 51 52 50 51 52 53 56 61
95 95 97 96 95 95 96 95 97 95 94 96 96 96 96 91 89 83 87 88 81 71 65 47 60 70 61 57 56 56 58 60 61 60 56 55 54 52 52 48 46 45 50
95 96 95 94 95 98 100 97 96 96 97 96 96 93 93 94 87 90 89 89 96 97 98 98 97 90 84 78 70 69 69 66 62 59 56 58 57 54 48 42 41 46 54
95 97 96 96 95 96 97 98 98 95 97 97 99 98 99 99 99 97 96 98 97 96 94 96 94 90 86 84 87 77 75 75 76 69 61 56 55 54 52 49 50 54 58
86 74 70 87 96 96 96 96 97 96 96 96 96 95 94 97 92 96 96 96 97 96 97 94 82 83 87 95 94 88 86 86 80 74 69 68 64 62 61 57 55 52 48
Wind_Speed
28 29 32 32 27 23 22 24 22 20 23 22 19 22 28 32 34 36 33 31 30 28 27 25 24 24 25 25 25 25 26 26 25 25 25 25 25 26 27 26 26 25 24
27 29 27 25 25 26 25 26 26 24 23 23 26 29 34 35 36 38 37 33 32 29 27 25 24 23 22 23 22 23 23 24 24 24 25 24 25 25 25 25 25 25 25
28 28 26 22 23 24 27 26 25 26 28 30 34 32 34 36 36 36 38 35 34 31 27 25 23 24 23 22 21 19 19 20 20 21 21 22 23 23 23 24 24 24 24
29 29 28 25 24 25 27 28 31 32 34 36 36 34 33 32 34 36 35 33 32 33 28 23 22 23 21 21 20 21 21 21 21 21 19 19 20 20 20 21 21 21 21
26 25 27 26 27 27 28 31 34 35 37 34 32 26 28 24 25 25 25 28 25 26 29 27 25 23 20 20 18 18 19 19 20 19 19 19 19 19 19 19 19 19 19
26 27 26 27 28 30 31 32 33 31 34 33 30 26 21 17 19 17 17 18 21 21 20 18 23 26 21 19 17 16 17 17 17 17 18 18 18 17 17 18 17 17 17
28 28 29 30 30 31 33 33 33 36 29 30 24 23 18 15 15 13 13 15 15 15 16 17 17 19 22 20 16 15 16 15 15 16 15 15 15 15 15 16 15 15 15
28 30 32 33 33 33 32 35 37 31 28 30 11 12 4 7 10 10 11 13 13 14 14 14 14 15 15 18 16 16 15 14 13 13 13 13 13 12 12 12 12 12 12
24 27 30 33 33 34 36 33 35 30 24 25 30 6 4 3 13 6 9 10 12 13 13 14 14 15 14 15 13 15 14 14 12 10 10 10 10 10 10 10 9 9 9
19 20 25 26 28 32 33 35 32 30 26 23 20 8 5 18 4 5 8 9 10 11 12 12 13 14 13 14 13 12 12 11 10 9 9 8 8 8 7 7 7 7 7
14 17 19 22 24 22 26 33 32 26 26 20 17 13 14 13 14 6 5 12 11 10 11 12 13 14 13 12 8 10 8 8 8 8 7 6 6 6 5 6 7 6 6
4 9 14 18 16 21 22 24 26 25 23 22 14 13 14 6 12 7 6 17 13 11 11 11 12 13 12 12 9 8 6 4 5 6 5 4 4 4 5 5 6 6 5
5 3 6 9 12 17 18 22 23 23 21 21 19 16 13 9 18 14 22 16 9 12 7 9 11 12 11 10 8 7 4 2 2 2 3 3 4 4 4 5 5 5 5
3 8 10 6 5 11 13 16 18 20 21 20 18 17 15 13 16 18 20 25 8 5 8 8 13 12 12 11 9 4 2 2 1 2 1 3 3 4 5 5 6 7 7
6 7 8 9 10 6 10 11 13 15 17 16 16 15 13 13 15 17 20 23 14 5 4 14 9 15 15 14 9 3 3 5 4 4 4 5 6 5 6 7 7 7 8
7 9 9 10 10 9 8 10 11 12 15 14 14 14 13 13 13 15 18 17 10 7 4 10 11 18 15 10 8 6 6 8 7 6 6 6 7 7 8 9 9 9 10
6 8 10 11 9 12 9 10 11 13 13 13 13 14 14 13 14 13 13 12 11 11 13 10 11 15 14 11 6 7 7 8 8 8 7 8 8 9 11 11 11 11 11
8 7 5 9 9 11 11 11 11 11 13 13 12 12 13 12 12 12 11 11 10 11 12 16 14 12 11 8 6 9 8 7 10 8 10 10 10 12 12 13 13 13 14
6 7 7 7 6 8 10 10 10 12 10 11 11 9 9 10 11 10 10 10 9 9 11 12 9 9 7 7 5 8 9 9 11 11 13 13 12 13 13 14 15 16 16
2 5 7 7 8 8 9 7 8 9 9 9 8 8 8 9 9 10 10 8 8 8 8 9 8 9 8 7 7 9 9 10 12 10 11 13 14 15 15 17 18 18 18
5 3 1 5 8 10 11 12 11 10 9 8 7 8 9 10 9 9 11 12 12 11 9 9 10 10 11 11 10 7 11 11 13 14 15 16 15 14 14 14 16 15 17
7 5 2 2 2 4 6 7 10 10 11 12 13 12 13 12 11 11 11 9 11 13 15 14 13 13 12 13 13 16 13 12 10 9 15 16 14 16 15 15 16 18 20
7 6 5 3 3 6 7 6 6 11 12 13 13 13 13 14 15 15 17 17 17 17 18 21 17 17 15 16 16 15 16 17 17 17 15 17 16 19 20 21 21 23 23
8 7 6 6 7 8 9 10 11 11 8 17 17 19 18 14 15 14 14 15 16 19 20 23 22 19 20 19 19 20 20 20 20 20 18 18 19 23 24 24 21 21 22
10 9 9 9 9 10 10 11 11 11 11 10 8 13 19 18 17 18 19 20 21 23 24 23 25 24 23 21 19 20 20 18 19 20 20 21 21 24 24 23 22 23 22
12 12 12 11 11 12 11 13 13 13 11 11 13 17 17 15 17 19 22 24 22 20 19 21 24 27 28 28 28 30 25 24 21 18 22 25 22 21 20 23 25 22 22
Wind_Direction
162 157 155 153 146 147 150 145 127 130 125 125 130 124 117 111 108 101 96 101 105 104 103 102 101 99 95 92 87 86 84 82 82 78 78 77 74 71 68 69 71 71 67
170 167 163 162 152 155 155 155 155 150 140 134 125 125 121 117 113 106 103 97 96 95 94 95 97 99 97 97 93 87 85 83 80 77 77 76 73 70 68 66 65 63 61
170 171 170 167 166 164 166 161 156 150 141 133 126 128 125 121 118 115 113 108 102 95 91 93 95 95 94 93 92 90 86 84 81 79 78 77 75 71 69 67 64 62 60
179 180 174 177 173 170 169 163 155 145 135 132 125 121 120 117 115 115 115 114 109 108 97 93 95 96 96 93 90 88 88 86 84 83 81 77 75 72 69 67 65 62 60
180 181 179 176 173 167 164 161 150 147 139 126 121 114 113 109 111 108 105 114 110 110 110 104 100 98 96 96 94 93 91 88 86 84 82 80 77 75 71 67 64 60 56
186 185 185 183 175 170 164 159 153 140 131 125 113 99 99 96 98 99 105 108 112 110 107 104 105 99 96 98 98 98 94 89 85 85 81 80 78 75 72 68 64 61 58
193 193 189 188 183 180 173 167 157 148 127 125 104 101 93 93 94 99 104 107 107 107 119 116 109 108 108 102 97 99 96 92 87 82 81 77 76 73 70 67 63 58 55
193 194 191 187 183 179 175 167 164 144 143 150 138 118 144 94 83 102 110 112 114 115 113 116 121 118 119 118 100 96 97 95 88 82 77 74 73 71 67 63 57 53 51
195 195 191 188 182 177 173 165 166 160 156 175 161 174 155 146 139 126 126 130 130 125 122 122 122 124 124 112 106 99 91 94 89 81 74 71 69 68 63 57 50 46 44
200 200 194 188 182 176 173 170 168 169 165 168 181 180 156 138 161 151 160 146 139 137 133 129 130 129 132 141 135 113 94 85 79 74 72 69 66 62 55 47 40 35 30
197 206 200 190 185 182 179 172 171 172 177 173 181 151 135 134 138 146 150 160 147 147 143 143 140 137 137 134 140 128 105 86 77 75 72 68 61 50 36 22 15 12 10
183 201 204 197 190 195 187 180 176 177 172 180 180 167 152 155 180 154 138 153 147 158 154 153 151 148 144 156 154 143 149 135 84 57 53 47 38 27 12 8 4 359 352
166 127 180 196 207 201 191 184 182 174 176 171 175 168 174 153 163 149 142 154 138 147 162 170 166 161 157 153 163 155 151 151 144 67 38 10 353 351 353 345 343 335 330
152 189 159 160 179 201 177 186 177 170 180 175 170 179 172 162 166 150 155 149 126 134 169 163 182 176 170 166 176 157 200 217 263 268 307 315 307 307 313 315 317 317 313
158 148 148 149 137 166 157 173 165 166 168 169 168 171 167 161 161 163 161 161 137 151 169 173 169 185 178 189 193 182 247 271 279 268 270 281 289 293 296 299 301 299 297
128 118 127 124 132 120 127 139 137 139 143 141 152 154 150 148 148 150 157 176 160 159 130 157 171 177 177 177 220 239 246 271 282 270 265 265 280 290 291 291 292 289 289
114 110 116 109 111 107 106 111 120 121 122 126 132 138 137 146 139 144 153 159 150 120 119 117 155 165 180 194 222 273 276 286 287 276 266 266 275 282 284 284 284 283 283
114 140 122 121 116 112 107 112 108 110 116 116 118 131 131 130 135 136 139 137 139 128 127 135 154 167 185 209 212 240 257 262 270 265 266 268 270 270 272 275 275 276 275
137 125 124 133 132 122 121 120 121 118 117 121 122 128 136 142 138 140 143 139 138 132 137 138 136 165 180 208 225 253 262 273 266 263 265 268 269 265 267 268 268 268 269
100 146 149 154 151 135 123 128 121 120 124 130 138 150 164 163 166 163 158 157 156 152 154 152 167 181 203 215 229 245 257 259 261 260 261 264 267 270 269 266 264 263 262
45 61 181 220 207 206 202 205 204 200 201 198 195 189 196 193 192 193 188 188 186 185 187 188 197 199 204 204 219 239 246 257 257 256 259 262 265 266 267 264 264 264 258
22 16 338 258 227 214 223 231 235 225 219 212 212 211 216 215 212 208 209 203 215 218 217 208 210 209 215 224 233 238 244 251 262 253 251 257 258 260 257 258 260 262 263
342 333 310 303 282 269 253 242 253 244 243 235 230 226 226 226 226 227 231 234 233 230 230 226 223 234 235 230 233 238 240 244 249 256 264 257 260 265 264 267 266 266 264
325 316 302 293 282 272 267 264 259 270 271 242 239 236 230 225 222 223 227 234 239 238 237 240 237 240 239 241 243 246 249 255 257 258 254 260 258 267 269 267 264 262 261
315 309 297 288 280 272 268 269 272 270 266 258 251 233 226 225 228 231 233 237 239 244 247 249 253 254 253 250 246 246 245 246 253 251 246 256 258 261 261 261 262 262 258
292 289 284 278 272 268 267 266 266 267 263 256 250 247 240 228 230 234 238 237 236 233 236 241 243 247 249 249 247 245 246 240 244 257 249 244 252 252 265 260 252 252 262